Kuressaare current weather conditions

sailwx.info

Wind from 260 at 8 knots

Air temperature 6.0° C
Visibility: greater than 5.4 NM
Dewpoint 4.0° C

Last reported at 2020-Jan-26 08:50 UTC.
Time now 2020-Jan-26 10:05 UTC

Location: N 58°14' E 022°31'.
View on Google Maps.

See reports from other nearby stations

  
Tides and Currents Weather Stations Pressure Air Temp Water Temp Dewpoint Dewpoint Depression Visibility Wind Speed Wind Dir Waves Ship Positions
date/time (UTC)wind fromknots sea level pressurealtimeterstation pressurevisibilityair tempwater tempwave heightnotes
2020-Jan-26 08:50 260 8 5.4 6.0
2020-Jan-26 07:50 250 11 4.9 5.0
2020-Jan-26 07:20 250 11 5.4 5.0
2020-Jan-26 06:50 250 12 5.4 5.0
2020-Jan-26 05:50 250 13 5.4 5.0
2020-Jan-26 05:18 250 12 gusting 22 5.4 5.0
2020-Jan-26 05:04 250 11 gusting 20 5.4 5.0
2020-Jan-26 04:50 250 11 5.4 5.0
2020-Jan-26 04:36 250 11 5.4 5.0
2020-Jan-26 04:22 250 11 5.4 5.0
2020-Jan-26 04:00 250 9 5.4 5.0
2020-Jan-26 03:50 250 9 5.4 4.0
2020-Jan-26 03:32 250 9 5.4 4.0
2020-Jan-26 03:00 240 8 5.4 4.0
2020-Jan-26 02:50 240 8 5.4 4.0
2020-Jan-26 02:31 240 8 5.4 4.0
2020-Jan-26 01:50 240 8 5.4 4.0
2020-Jan-26 01:29 230 8 5.4 4.0
2020-Jan-26 00:59 230 8 5.4 4.0
2020-Jan-26 00:50 220 8 5.4 4.0
2020-Jan-25 23:50 230 7 5.4 4.0
2020-Jan-25 22:50 240 6 5.4 3.0
2020-Jan-25 21:50 240 2 5.4 2.0
2020-Jan-25 20:50 270 2 5.4 1.0
2020-Jan-25 19:50 280 4 5.4-0.0
2020-Jan-25 18:50 280 2 5.4-0.0
2020-Jan-25 17:50 290 4 5.4 1.0
2020-Jan-25 16:50 280 4 5.4 1.0
2020-Jan-25 15:50 270 4 5.4 2.0
2020-Jan-25 14:50 290 5 5.4 3.0
2020-Jan-25 13:50 300 6 5.4 4.0
2020-Jan-25 12:50 320 9 5.4 5.0
2020-Jan-25 11:50 310 8 5.4 5.0
2020-Jan-25 10:50 310 9 5.4 5.0
2020-Jan-25 09:50 320 11 5.4 4.0
2020-Jan-25 08:50 290 6 5.4 3.0
2020-Jan-25 07:50 290 6 5.4 3.0
2020-Jan-25 06:50 280 6 5.4 3.0
2020-Jan-25 05:50 280 6 5.4 3.0
2020-Jan-25 04:50 280 5 5.4 3.0
2020-Jan-25 03:50 290 6 5.4 4.0
2020-Jan-25 02:50 290 6 5.4 4.0
2020-Jan-25 01:50 290 7 5.4 4.0
2020-Jan-25 00:50 280 7 5.4 4.0
2020-Jan-24 23:50 270 7 5.4 5.0
2020-Jan-24 22:50 270 6 5.4 5.0
2020-Jan-24 21:50 280 6 5.4 5.0
2020-Jan-24 20:50 280 6 5.4 5.0
2020-Jan-24 19:50 280 7 5.4 5.0
2020-Jan-24 18:50 5.4 4.0
2020-Jan-24 17:50 280 5 5.4 5.0
2020-Jan-24 16:50 290 6 5.4 5.0
2020-Jan-24 15:50 300 6 5.4 5.0
2020-Jan-24 14:50 290 8 5.4 6.0
2020-Jan-24 13:50 290 9 5.4 7.0
2020-Jan-24 12:50 290 11 5.4 7.0
2020-Jan-24 11:50 270 11 gusting 22 5.4 7.0
2020-Jan-24 10:50 280 9 5.4 6.0